Theta_e
295 296 297 296 295 293 292 292 293 296 299 301 304 307 311 315 318 319 321 323 322 322 321 320 318 318 319 318 317 318 318 318 318 319 318 318 317 317 315 314 313 313 312 312 312 308 308 307 307 307 308 309 308 308 307 306 307 306 304 304 303 302 299 302 301 301 298 294 293 292 291 290 293 296 296 297 297 298 300 301 300 302 301 301 299
293 294 295 295 295 293 292 293 294 295 297 299 302 305 309 314 317 319 321 322 322 322 322 321 321 320 319 318 318 318 317 316 316 318 318 317 317 317 315 314 313 313 311 312 311 309 308 306 306 306 307 307 308 307 306 303 305 305 304 302 302 303 299 300 301 303 297 296 294 291 291 291 292 290 293 291 293 295 298 301 301 302 300 298 297
291 292 293 294 294 294 294 294 293 294 297 298 300 302 306 311 315 318 320 321 322 322 322 321 322 321 320 319 319 318 319 318 318 318 317 317 317 317 315 315 314 313 312 311 311 310 309 307 306 306 307 306 306 305 304 303 305 305 305 304 300 297 297 298 301 304 294 295 294 293 289 291 294 292 289 287 289 292 295 298 298 299 297 296 297
289 290 291 292 293 294 295 295 295 295 296 297 299 301 304 307 313 317 319 321 322 321 317 322 322 322 321 320 320 319 317 316 318 318 317 317 316 316 316 315 313 312 312 311 311 310 309 308 308 307 307 306 307 305 303 303 304 305 305 304 302 299 297 297 297 298 298 297 293 291 288 291 289 292 289 289 286 288 293 294 295 296 293 291 295
289 289 290 290 291 292 294 294 295 296 296 296 298 300 303 306 309 314 318 320 321 317 320 320 321 320 321 320 319 318 317 316 316 315 316 315 315 315 315 315 313 312 312 311 310 310 309 309 308 307 307 306 307 305 303 303 303 306 306 303 303 302 298 296 293 293 300 302 292 289 288 289 291 289 290 289 284 289 288 288 291 291 291 291 293
288 288 289 290 291 292 294 295 295 296 296 297 297 299 301 303 306 310 315 318 320 320 321 320 318 319 318 316 314 314 313 312 311 311 313 313 314 316 315 315 313 312 312 311 310 309 309 309 307 306 306 306 307 306 305 303 303 304 305 305 304 303 301 299 295 290 296 297 296 293 293 291 290 287 293 291 284 284 285 285 286 287 288 288 287
289 289 290 290 291 292 293 294 295 296 297 298 297 297 298 301 304 307 311 315 318 320 319 317 320 319 319 317 316 315 314 314 315 316 315 316 316 315 314 314 314 312 310 311 310 309 309 308 307 306 306 305 304 305 303 302 303 304 304 305 306 304 302 300 298 293 291 291 291 286 286 285 292 291 293 284 286 286 284 285 285 285 284 285 286
287 288 290 291 292 293 293 295 295 296 297 297 297 298 298 299 301 304 307 309 314 318 319 318 319 319 318 318 316 317 315 314 315 315 316 315 315 315 314 313 314 313 311 310 310 308 308 308 306 305 305 305 303 303 303 302 301 300 301 303 303 304 304 303 300 294 297 296 287 287 286 286 291 286 291 292 287 287 285 284 283 283 284 284 284
287 288 290 291 292 294 295 296 297 298 298 298 298 298 298 299 299 302 305 308 311 314 316 318 316 319 319 318 316 316 317 316 315 315 314 314 314 315 314 313 313 313 312 311 310 309 306 307 306 305 305 304 301 303 302 301 300 300 299 299 300 301 305 305 302 297 300 296 287 284 285 285 285 284 289 284 284 286 283 283 283 283 283 283 283
288 289 290 291 293 294 296 298 299 300 299 299 299 299 299 299 299 300 303 305 308 312 315 316 317 316 319 318 317 315 315 315 315 314 314 314 313 314 314 313 313 312 312 311 310 310 308 307 305 304 304 303 301 302 302 302 301 300 299 300 299 299 299 301 301 299 300 296 293 289 285 283 283 284 283 283 284 288 286 284 283 283 283 283 283
287 288 289 290 292 293 295 296 298 299 299 299 299 299 299 300 300 301 302 304 306 309 313 315 316 316 318 319 318 316 315 315 313 313 313 313 312 313 313 313 313 312 312 311 311 310 309 307 306 305 304 302 300 301 299 301 301 301 300 299 298 299 298 299 300 298 297 293 291 290 293 289 287 285 283 285 284 283 283 282 282 283 284 284 284
287 287 287 288 289 291 293 294 297 297 297 297 297 297 297 298 299 300 301 302 305 307 310 314 316 316 316 318 317 317 316 315 314 313 313 312 312 312 313 313 312 312 311 311 310 310 308 307 306 305 303 302 300 301 300 300 300 300 299 299 299 299 298 297 297 296 295 293 292 290 291 289 288 289 288 289 288 286 286 283 282 281 283 282 284
286 286 286 287 287 288 290 292 295 295 295 295 295 296 296 297 298 299 299 301 304 307 309 310 314 315 314 315 316 318 317 316 315 314 314 313 312 312 311 311 312 311 310 310 310 310 308 307 306 305 303 301 300 300 300 300 300 299 298 299 299 298 297 298 296 295 294 293 294 290 289 287 288 287 290 289 288 288 287 283 281 281 282 283 283
286 286 286 286 287 287 289 291 294 294 293 293 294 294 295 295 297 297 298 300 302 305 308 310 312 314 315 314 315 315 315 315 316 314 314 314 313 312 312 311 311 311 310 309 310 309 308 307 305 305 304 302 300 300 300 300 299 299 298 298 297 298 298 296 296 295 292 292 291 289 287 286 287 285 287 287 288 287 285 286 283 281 284 283 281
285 285 285 285 286 287 288 290 293 292 291 292 293 294 294 294 295 297 298 300 301 303 307 308 311 313 314 314 313 315 316 316 315 315 314 314 314 313 313 312 312 311 311 310 309 309 307 307 305 305 304 303 301 300 300 298 299 299 298 297 297 297 295 294 294 293 290 290 291 292 289 287 286 285 285 287 288 289 288 287 288 286 282 282 282
285 284 284 285 286 287 288 290 292 291 290 291 292 293 293 294 294 296 297 299 301 302 305 308 310 312 313 313 313 313 311 314 314 314 315 315 314 314 313 313 312 312 312 310 309 307 307 306 304 304 304 303 302 300 299 298 297 297 296 296 296 296 294 293 294 292 291 291 291 290 289 288 287 285 285 287 287 288 289 289 291 289 287 282 282
284 283 283 284 285 286 287 289 291 290 289 289 291 292 293 293 294 294 296 298 300 301 305 307 308 309 311 313 312 312 312 313 314 314 315 315 315 314 314 313 313 312 312 311 310 307 306 306 305 304 305 304 302 300 299 298 297 295 295 296 296 295 294 293 294 293 293 292 291 290 290 289 287 285 286 285 286 287 289 291 292 291 290 287 284
284 283 283 284 284 285 285 287 290 289 288 289 290 292 293 294 294 294 294 296 298 301 303 306 307 308 310 311 311 312 312 313 314 313 314 314 314 314 314 312 312 312 311 310 310 308 305 302 305 304 304 303 302 301 300 299 297 295 295 295 296 295 294 293 293 293 292 291 291 290 290 289 288 286 286 285 286 288 289 291 290 290 292 289 287
283 283 283 283 283 284 284 286 289 288 288 288 290 291 293 293 294 294 294 295 297 300 302 305 307 308 309 310 310 310 311 312 313 313 313 312 312 313 312 313 311 310 309 309 309 309 306 304 304 303 303 302 302 301 300 299 298 297 295 295 295 295 294 293 292 292 291 290 289 289 289 289 288 288 287 286 286 287 289 290 289 288 290 291 290
283 283 283 283 283 283 283 285 287 287 287 288 289 291 292 293 293 293 294 295 296 297 299 302 304 306 306 306 308 309 309 310 311 311 311 311 311 312 312 311 312 309 309 309 308 308 306 303 303 304 303 302 302 301 300 299 298 297 296 296 294 294 294 293 291 291 291 290 289 288 288 289 287 288 287 286 286 286 288 289 288 288 286 284 288
283 283 282 282 282 282 283 285 287 286 286 287 289 290 291 292 292 293 293 293 294 295 296 299 302 303 303 304 306 306 308 310 310 311 311 311 311 310 312 312 310 310 309 308 308 307 307 305 303 302 302 301 300 299 299 298 297 296 295 294 293 293 293 293 292 290 290 290 289 288 288 288 288 288 287 287 287 287 287 288 286 285 285 284 288
284 283 282 281 282 283 283 285 286 286 286 286 288 290 291 291 292 292 293 292 293 294 295 296 298 301 302 303 305 306 306 307 308 310 310 310 309 310 311 310 309 309 308 308 307 307 306 305 302 301 301 301 300 299 298 298 297 296 295 295 293 293 293 292 292 291 290 290 289 288 287 287 287 288 287 286 287 286 287 286 285 286 285 285 286
283 282 282 281 282 282 283 284 285 286 285 286 288 289 290 291 291 292 292 292 293 293 294 295 296 297 299 302 303 304 305 306 306 308 309 309 309 308 308 309 309 308 306 307 307 307 305 303 302 301 300 300 299 299 298 298 298 296 295 294 294 293 293 292 291 291 290 290 289 288 287 286 286 287 287 288 287 287 287 287 286 285 285 283 282
283 283 282 282 282 282 283 283 285 286 286 286 288 289 290 291 291 291 291 291 292 293 294 294 294 294 296 298 301 303 304 305 305 306 307 308 309 308 306 307 308 306 303 304 305 304 304 303 301 300 298 299 299 298 297 298 298 298 296 294 293 294 294 293 292 292 291 290 290 289 287 286 286 286 286 286 286 287 287 287 286 284 285 283 281
283 283 282 282 282 282 283 283 284 286 286 286 287 289 289 290 291 291 291 292 292 292 293 294 294 293 293 295 297 301 302 304 305 306 306 306 305 305 304 304 305 305 303 300 299 301 301 302 301 300 299 298 298 298 298 297 298 298 297 296 294 294 294 293 293 292 291 291 291 290 288 286 286 287 285 285 285 286 287 287 286 284 284 283 282
283 283 282 282 283 283 282 283 284 285 286 286 287 288 289 290 290 291 291 291 292 292 292 293 293 293 292 293 295 299 302 303 304 304 304 305 304 303 302 302 303 303 302 302 300 299 299 300 300 300 300 299 298 298 299 298 298 297 297 296 295 294 294 294 293 292 292 292 291 291 288 287 287 287 286 286 285 286 286 286 285 283 283 282 282
282 283 283 283 283 282 283 283 284 285 286 286 286 287 288 289 290 291 291 291 291 292 292 292 293 292 292 292 293 295 300 302 302 302 303 303 303 302 302 301 300 301 300 299 301 300 298 299 299 299 299 298 298 298 298 298 298 297 297 296 295 294 295 294 293 292 292 292 292 291 289 288 288 288 287 286 286 286 287 286 285 284 282 283 282
282 282 282 282 283 283 283 283 283 285 286 286 286 287 287 288 289 290 290 291 291 291 291 292 292 292 292 292 292 293 296 300 302 302 301 301 301 300 300 299 298 300 300 299 298 299 300 299 299 298 298 298 298 297 298 298 297 296 295 295 294 293 292 292 292 292 291 291 292 291 290 290 290 290 288 287 287 288 287 286 285 284 283 283 282
281 281 282 282 282 283 283 283 283 284 285 286 286 286 287 288 289 289 290 290 291 291 291 291 291 292 291 292 292 292 294 297 298 300 299 299 300 299 298 297 295 296 299 300 300 298 297 297 298 298 298 297 297 297 297 297 296 294 294 293 293 292 292 291 291 291 291 291 291 291 290 290 290 289 289 289 289 289 287 286 284 284 283 284 282
281 281 282 282 283 283 283 283 283 284 285 285 286 286 287 288 288 289 289 290 290 290 290 290 290 291 292 291 291 291 292 294 296 296 298 298 298 297 296 294 294 295 295 295 297 298 297 297 297 297 297 297 297 299 296 296 297 296 294 294 293 292 291 291 290 289 289 290 291 291 290 289 289 288 288 289 290 290 289 288 285 284 284 283 282
281 282 282 282 282 283 283 283 283 284 284 285 286 286 287 287 288 288 289 289 289 289 289 289 290 291 291 291 291 290 291 292 294 294 295 295 296 296 295 293 293 292 293 292 293 295 297 297 297 296 295 296 297 298 296 298 298 297 296 294 293 292 291 291 290 289 289 289 290 290 290 288 288 288 288 290 291 291 290 290 288 288 288 286 283
281 282 282 283 283 283 283 284 284 285 285 285 286 286 286 287 287 288 288 289 289 289 289 289 290 290 290 290 290 290 290 290 292 293 293 293 294 294 294 293 292 292 292 292 292 292 294 296 297 296 296 296 297 296 297 297 298 298 296 294 294 293 291 291 291 290 290 290 289 289 289 289 289 289 289 289 289 290 290 290 289 289 289 290 289
282 282 283 283 284 284 284 284 285 285 286 286 286 286 286 287 287 288 288 288 288 288 288 289 289 290 290 289 289 289 289 290 291 292 292 292 292 292 293 292 292 293 293 292 292 293 292 292 294 294 294 295 295 296 297 297 297 297 297 295 294 293 292 291 290 290 290 290 289 289 288 288 289 288 288 288 288 288 289 290 289 289 289 290 290
272 272 274 275 277 279 281 281 282 283 284 286 286 286 287 287 287 287 287 287 287 288 288 288 289 289 289 289 289 289 289 289 290 291 291 292 292 292 292 293 292 292 292 292 292 292 292 292 292 292 293 294 294 295 296 297 297 297 297 295 293 292 292 291 290 290 290 289 289 289 288 287 288 287 287 287 288 287 287 287 286 286 285 287 290
271 271 272 273 274 275 275 277 278 280 281 283 284 284 284 284 285 286 286 287 287 287 288 288 288 289 289 288 289 289 289 289 290 290 291 291 291 292 291 292 292 292 292 292 292 292 291 291 292 293 293 293 293 295 296 296 296 297 297 296 293 292 292 291 290 290 290 290 289 289 289 288 287 287 287 287 287 287 286 286 284 284 284 284 285
271 271 271 272 272 272 273 274 276 278 278 280 280 281 281 282 284 284 285 285 286 287 287 288 288 289 289 288 288 289 289 289 289 290 290 291 291 291 291 291 292 292 293 293 292 292 291 291 291 292 292 292 293 295 295 295 296 296 297 294 292 291 291 291 290 289 289 290 289 289 289 288 287 287 288 290 289 287 286 284 284 284 283 283 284
270 271 270 271 271 270 270 271 272 272 273 275 278 280 280 281 282 283 284 285 285 286 287 287 288 289 289 288 288 289 289 289 289 289 290 290 291 291 291 292 291 291 291 292 292 292 292 291 290 290 291 292 292 293 295 295 295 296 295 293 291 291 291 290 289 289 289 289 289 289 289 288 287 287 288 291 291 289 286 285 285 284 283 283 283
269 269 270 270 270 270 270 270 270 270 271 273 275 277 279 280 281 282 282 283 285 286 287 287 288 288 289 288 288 289 289 289 289 289 290 290 291 291 291 292 291 291 291 291 292 292 292 292 291 291 291 292 292 292 294 295 295 296 294 292 292 291 290 290 289 289 289 289 288 288 288 288 287 287 290 291 291 288 286 285 285 283 282 282 282
268 268 268 268 269 269 270 270 270 270 271 272 273 274 275 276 278 280 281 282 284 285 286 287 288 289 289 288 288 288 289 289 289 289 290 290 290 291 291 291 292 292 292 292 292 292 291 291 291 291 291 291 292 291 293 294 294 295 293 292 292 291 290 290 289 288 288 288 288 287 288 288 288 288 290 291 291 288 286 286 285 284 283 282 284
267 267 268 269 270 270 270 269 270 270 271 272 273 273 274 275 277 278 280 281 283 285 286 287 288 288 288 288 288 288 288 289 289 289 290 291 291 291 291 291 291 292 292 292 291 292 290 291 291 290 290 291 291 290 290 294 294 294 294 292 292 291 290 289 288 288 287 287 287 287 288 290 290 290 291 292 291 290 287 286 286 285 284 283 285
266 267 270 268 269 270 270 270 271 271 272 272 272 272 272 274 276 277 279 280 282 284 286 286 287 287 288 288 288 288 288 288 289 289 290 290 291 291 290 290 290 291 291 291 291 291 291 291 290 290 290 290 291 290 289 293 294 294 294 293 291 291 291 290 288 287 287 286 285 286 287 289 291 291 291 291 291 291 290 286 286 286 286 286 285
267 269 268 268 269 269 270 271 271 272 272 273 273 272 272 273 274 275 276 278 280 282 284 285 286 286 287 288 288 288 288 289 289 289 289 289 290 290 291 290 291 291 290 290 290 290 291 291 290 289 290 289 290 289 289 292 293 294 294 293 292 291 291 290 288 287 287 287 286 286 286 288 290 290 291 291 291 291 290 286 286 289 290 288 284
265 266 267 268 268 269 270 270 272 272 272 272 272 271 271 273 273 276 278 279 280 282 283 284 285 286 287 287 288 288 288 288 289 289 289 290 290 289 289 290 290 289 289 289 289 290 290 290 290 289 290 289 289 289 290 290 292 293 294 293 293 292 292 290 289 287 287 287 287 287 287 288 290 290 291 291 291 291 289 287 289 290 289 288 285
265 266 268 269 269 269 270 271 271 272 272 272 272 271 272 273 274 277 280 282 282 283 283 284 285 286 287 287 287 287 288 288 289 289 289 290 290 289 289 290 290 290 290 289 290 290 290 289 289 288 289 289 289 289 289 290 291 293 293 293 293 293 292 290 290 289 288 288 287 287 287 288 289 290 291 291 291 290 287 289 289 289 288 286 282
265 266 267 269 269 269 269 270 271 271 272 272 272 271 272 272 275 278 279 280 281 282 282 283 284 286 287 287 287 287 288 288 288 289 289 289 289 289 289 289 289 290 290 289 289 289 289 289 289 289 288 288 288 288 289 289 290 291 293 293 293 293 292 292 289 289 288 288 288 289 289 289 289 290 290 291 290 289 289 289 289 288 286 282 281
264 265 265 266 268 269 269 269 270 271 272 272 272 272 272 274 278 280 280 281 281 282 283 284 285 286 287 287 287 287 287 288 288 289 289 290 290 289 289 289 289 289 289 289 289 289 289 289 289 289 288 288 288 287 288 289 289 290 291 292 292 292 291 291 289 289 288 289 289 289 288 289 289 289 288 288 287 287 288 288 287 286 283 282 281
262 264 265 265 266 266 267 268 269 271 272 272 272 273 274 276 279 282 283 283 283 283 284 285 286 286 287 287 287 287 288 288 288 289 289 290 290 290 289 289 289 289 289 289 289 289 288 289 289 289 288 288 287 287 287 288 288 289 290 290 291 290 290 289 288 285 287 286 287 287 287 288 288 288 288 288 288 287 287 286 286 285 283 282 282
263 264 264 264 264 264 264 265 266 268 269 271 273 274 277 278 281 283 284 284 284 285 285 286 286 287 287 288 287 286 287 288 288 288 289 290 290 290 290 289 289 289 289 289 289 289 288 289 289 289 288 287 287 287 287 287 287 288 289 290 290 289 289 288 287 285 286 286 286 287 287 286 287 287 287 286 286 286 285 285 285 284 283 282 282
262 262 263 263 263 263 264 264 265 267 267 268 269 271 272 274 275 277 279 280 282 285 286 286 287 287 287 288 288 288 288 288 288 288 289 290 290 290 290 290 290 291 291 290 290 290 289 290 290 289 288 287 287 286 287 289 288 289 289 289 289 289 289 288 288 287 285 285 285 285 284 284 285 285 285 285 285 285 284 284 284 284 283 281 281
262 262 262 262 263 263 263 264 264 265 266 266 267 268 270 271 272 273 275 275 277 280 283 285 286 287 288 288 288 288 288 288 288 288 288 289 289 291 291 290 290 290 291 292 292 290 290 290 290 290 290 289 288 288 289 290 290 290 291 291 291 291 290 289 288 288 286 284 284 283 283 283 284 284 284 284 284 285 284 283 283 284 282 281 281
261 261 261 261 262 263 263 263 263 264 264 265 265 266 268 270 270 271 272 273 275 277 280 282 285 286 287 288 288 288 288 288 288 288 288 288 288 289 291 291 291 290 290 291 291 292 292 292 290 290 290 291 291 291 290 290 290 290 291 291 291 291 290 289 289 286 285 284 283 283 283 283 284 284 284 284 284 284 284 283 283 283 282 281 281
Wind_Speed
10 9 10 11 11 12 11 10 9 9 8 5 5 7 8 10 10 13 12 13 11 10 11 10 11 10 13 13 12 13 13 12 12 11 11 10 11 11 10 10 11 11 11 10 10 9 9 9 10 9 11 12 12 12 12 11 9 9 10 9 11 9 4 7 9 13 11 6 7 6 6 4 4 4 5 5 4 3 3 6 3 4 4 5 3
15 16 17 14 14 11 10 9 7 10 11 6 6 7 7 8 11 13 12 14 15 14 12 14 15 14 15 17 15 12 12 13 13 12 12 11 12 12 11 10 11 12 11 12 11 12 10 10 11 11 11 11 12 12 12 10 10 9 9 8 6 10 6 8 11 13 6 9 8 4 4 5 3 4 4 3 3 2 3 5 4 5 4 3 2
16 17 16 15 16 14 10 10 8 5 9 10 8 6 6 7 10 11 12 12 15 16 13 13 14 15 14 14 16 12 11 12 11 10 11 11 12 12 11 11 12 11 12 12 11 11 11 11 12 10 11 11 10 9 9 9 10 12 12 11 9 4 6 5 10 10 8 9 8 8 3 4 1 2 2 3 3 2 3 4 4 5 4 2 3
17 16 16 15 15 15 14 14 13 10 8 7 8 7 6 6 9 11 13 14 14 15 15 13 12 14 13 10 11 11 9 9 11 10 10 12 12 12 11 11 12 12 12 12 11 11 12 12 11 11 10 10 12 11 11 12 10 11 11 11 11 10 7 8 3 8 12 14 9 6 5 6 3 6 3 0 1 0 1 4 4 5 4 3 3
17 18 17 17 17 16 15 12 12 14 14 13 10 10 7 8 10 11 12 14 14 14 15 17 11 9 11 10 9 9 6 8 9 11 11 11 11 12 13 13 14 14 14 14 12 13 12 11 12 11 11 11 10 12 12 13 12 12 12 11 13 12 9 6 2 5 13 11 10 7 3 4 7 4 6 1 1 1 0 1 1 4 5 4 4
16 17 16 14 15 16 18 17 16 15 16 15 12 10 9 10 9 9 10 11 14 15 17 14 17 13 12 13 13 14 13 14 16 17 16 16 16 14 14 14 14 14 13 14 13 12 12 12 12 12 11 11 10 11 12 11 12 12 13 13 12 11 11 10 6 1 6 9 10 5 5 7 9 6 8 7 0 1 1 0 1 1 1 3 3
16 16 18 20 20 20 19 18 16 16 15 14 14 12 10 10 10 9 10 11 14 15 16 12 14 18 18 16 15 17 19 17 18 17 16 14 13 14 13 12 13 13 12 12 12 12 12 12 12 11 11 11 9 9 10 12 11 11 10 11 13 12 12 12 13 9 2 2 6 4 4 2 12 12 10 6 5 3 1 0 2 1 0 2 3
13 13 15 17 19 18 19 17 15 17 16 14 14 13 12 11 11 11 9 11 12 14 15 16 16 14 19 21 16 16 16 14 16 17 16 14 15 15 12 12 14 13 13 13 12 12 12 11 11 10 11 10 10 10 11 10 9 7 7 7 8 10 14 14 13 11 16 11 6 6 4 4 9 4 6 11 5 9 4 2 2 1 1 1 0
11 13 16 17 18 19 20 19 17 16 15 14 15 14 12 11 10 11 11 11 12 15 16 17 17 17 16 17 19 16 15 12 11 11 13 14 15 14 14 13 13 14 13 14 13 13 10 12 11 11 11 10 9 9 8 9 11 11 9 8 10 10 11 10 12 13 12 11 9 3 6 5 4 1 7 5 7 8 2 5 3 3 3 3 2
11 12 13 16 17 17 18 17 17 15 14 13 14 14 12 12 12 12 12 10 10 12 16 18 19 18 17 17 21 20 14 12 10 12 12 13 16 16 15 14 12 12 13 14 14 14 13 11 11 12 12 12 10 10 11 11 10 9 11 11 10 11 8 10 12 11 9 6 10 9 6 4 4 2 3 5 2 5 10 11 7 7 6 0 2
13 13 13 13 12 14 15 17 17 16 14 14 14 15 16 14 13 14 16 14 11 12 14 18 19 18 19 20 19 18 20 17 14 13 13 13 15 15 14 14 13 13 12 13 14 15 15 13 12 12 11 11 11 11 11 12 11 12 9 7 9 12 10 10 11 11 9 8 8 10 11 12 11 8 8 7 6 4 6 6 5 5 9 6 2
15 14 15 16 17 17 16 17 17 17 17 17 15 15 16 16 16 17 17 18 14 12 12 16 17 19 19 21 21 18 19 18 18 16 16 16 17 16 15 14 14 13 13 12 13 14 13 13 12 12 11 10 11 10 10 11 11 10 10 11 10 9 9 9 9 10 10 9 10 9 9 6 7 10 9 9 9 8 10 8 8 4 5 3 2
14 15 16 17 18 20 20 20 17 16 16 19 18 17 17 17 18 17 18 20 18 14 13 15 17 19 18 19 20 17 17 21 19 18 15 15 15 16 15 15 13 13 14 14 14 16 13 13 12 12 11 10 10 10 10 11 10 11 11 12 11 11 11 12 11 13 13 12 13 8 7 6 7 4 9 10 5 8 11 11 1 0 6 4 0
10 10 10 10 13 15 17 17 16 15 16 17 17 17 17 17 18 18 19 19 20 16 13 13 16 18 18 17 17 18 17 15 16 16 16 14 14 16 16 16 16 17 15 15 14 15 14 14 14 13 12 12 12 12 11 11 11 11 12 13 13 12 10 11 11 10 10 9 7 8 6 6 7 3 6 8 9 11 11 14 9 3 5 5 0
13 14 15 17 17 18 18 17 16 15 16 15 14 16 16 17 18 20 20 20 20 18 13 13 14 17 17 17 17 16 18 17 15 14 14 14 14 15 15 14 15 15 16 13 13 16 15 13 14 14 13 13 12 12 11 11 11 10 10 12 11 11 12 13 11 11 11 11 10 11 10 8 7 6 6 8 10 12 13 13 14 14 4 3 2
15 13 13 15 14 14 16 17 14 12 13 12 14 14 15 16 17 19 19 19 18 18 14 12 13 14 17 17 16 17 16 14 14 14 15 15 14 15 15 15 14 13 14 15 16 14 16 16 14 15 15 14 13 13 12 11 11 12 10 10 11 8 11 13 12 12 12 13 12 8 8 9 7 8 7 8 8 9 11 11 13 15 15 7 2
14 13 13 17 18 19 17 15 14 12 12 13 13 13 15 16 16 18 19 20 20 19 16 13 12 12 15 16 16 17 17 17 16 17 18 16 15 15 14 15 14 13 13 14 15 14 13 15 17 16 15 15 13 12 12 11 12 12 11 11 12 10 11 14 11 12 12 12 10 12 11 10 8 6 6 4 5 7 10 11 12 14 14 15 9
13 12 13 14 14 17 19 18 15 14 13 12 13 14 13 14 16 17 18 20 21 20 17 13 13 13 14 14 14 15 18 18 16 15 15 14 14 14 13 12 15 14 12 12 14 15 15 14 13 15 15 13 14 14 13 13 11 10 11 11 12 12 12 9 10 11 11 11 10 10 9 9 8 8 8 6 6 8 9 9 9 8 13 15 11
12 12 12 12 12 13 15 17 15 12 12 11 10 12 12 13 15 15 16 17 18 18 18 13 12 11 11 12 13 14 15 16 16 15 13 14 15 13 14 14 12 12 14 14 14 15 14 14 15 14 14 15 13 12 13 12 13 11 10 11 9 10 11 12 10 10 9 10 10 11 9 9 8 8 7 6 5 7 8 8 6 7 7 12 13
12 12 11 11 12 12 13 15 15 12 12 12 11 11 12 12 13 16 17 17 18 20 20 17 13 11 10 8 9 10 14 13 14 15 15 16 15 14 13 12 15 12 12 15 15 15 15 15 16 16 15 14 15 14 13 13 13 12 11 11 10 11 12 12 11 9 8 10 10 11 10 9 8 7 7 7 7 6 6 8 7 8 6 4 9
13 12 11 11 12 12 13 13 12 10 10 10 9 10 9 9 11 13 16 17 18 19 19 18 16 13 12 9 11 10 13 15 16 16 16 15 14 13 14 13 10 13 14 13 16 17 16 16 16 14 14 14 14 14 13 11 11 12 11 11 10 11 12 11 11 10 8 10 11 11 10 9 9 9 8 7 6 7 6 6 7 8 7 6 9
13 13 11 11 11 13 13 13 11 9 10 11 11 8 8 9 9 10 13 14 16 17 17 19 18 16 14 12 12 11 11 11 13 16 16 15 14 14 14 12 14 13 14 17 15 15 16 16 15 17 17 16 15 14 14 12 12 12 11 9 10 12 11 9 10 13 11 10 10 11 10 9 9 10 9 8 8 7 8 8 7 9 9 8 6
13 13 13 11 11 12 12 13 13 11 11 11 10 9 8 8 9 9 11 14 14 15 15 16 17 18 18 15 12 12 10 12 13 14 16 16 16 15 14 15 15 12 13 14 18 19 16 15 16 16 15 16 15 14 14 15 15 14 13 12 12 13 13 11 11 12 13 11 11 10 11 9 8 9 9 9 8 9 8 9 9 7 9 8 6
13 12 11 12 12 12 12 13 13 10 9 10 11 9 8 7 7 8 10 12 14 14 15 15 15 17 20 20 17 12 13 12 14 15 15 15 15 14 13 15 14 12 12 14 14 14 17 17 16 16 15 13 17 15 13 14 17 16 15 15 14 14 14 14 14 13 12 12 13 10 9 10 10 10 9 8 8 9 10 9 10 7 8 8 6
15 14 14 14 15 17 15 13 13 11 9 9 10 10 8 8 7 9 10 9 11 13 15 16 15 17 18 19 20 17 13 13 14 14 15 14 12 12 11 13 13 14 14 10 11 13 13 16 19 20 18 16 14 16 16 14 13 14 15 15 14 14 13 14 13 13 14 15 14 14 11 11 11 11 9 9 9 11 10 10 9 8 8 7 6
18 15 15 17 18 16 15 15 14 12 10 10 10 9 9 8 9 8 10 11 11 11 13 15 15 15 16 18 19 17 15 14 14 14 14 14 13 11 11 11 12 14 14 16 13 10 13 15 14 15 17 17 16 14 16 18 17 14 13 13 13 14 14 12 11 10 12 13 15 14 12 12 12 13 12 10 10 11 9 8 9 9 8 7 8
18 17 17 18 19 20 18 16 15 13 10 9 9 10 10 10 10 8 8 9 10 11 13 14 15 15 15 16 17 18 16 13 12 13 12 12 12 12 12 12 11 13 14 13 16 18 14 13 13 14 15 17 17 17 17 15 14 15 15 14 13 12 13 14 12 12 12 12 13 13 14 14 14 13 13 13 12 11 11 12 12 11 9 9 9
19 18 21 24 23 20 19 17 16 14 12 11 10 11 11 11 12 10 8 9 10 11 12 13 15 15 14 16 16 15 16 15 12 12 12 13 13 12 12 11 12 14 14 15 13 15 17 15 14 14 14 13 14 15 15 16 16 15 15 15 14 14 12 11 13 12 12 12 13 13 14 15 15 14 14 13 14 13 11 11 9 11 11 12 11
22 20 20 21 23 21 20 18 16 14 13 14 12 11 11 13 12 12 11 10 10 10 12 13 14 15 15 14 14 15 14 15 12 12 13 13 13 13 13 12 11 11 14 18 18 14 11 15 16 16 16 15 14 14 14 15 16 14 13 15 15 15 15 12 11 13 13 12 11 13 13 14 14 16 18 17 16 15 13 12 10 11 12 12 12
24 23 21 20 22 23 20 17 16 15 15 15 14 14 13 14 14 14 13 12 10 10 11 13 13 14 15 14 14 14 15 15 13 12 14 14 14 13 13 12 13 16 11 8 13 17 17 16 16 16 16 16 16 16 18 22 19 17 16 15 14 14 14 13 12 11 11 12 13 12 13 20 19 18 19 20 20 18 17 15 14 13 13 13 13
28 27 25 20 21 20 19 17 18 18 17 15 15 15 15 14 14 14 14 14 9 10 11 12 13 13 14 13 13 15 15 14 13 12 11 13 15 14 13 13 13 11 13 12 10 14 18 18 17 16 16 16 16 16 25 26 27 26 19 17 16 14 14 15 15 13 13 14 11 12 12 16 16 16 17 21 20 20 20 17 17 17 16 18 16
26 25 21 22 22 21 20 20 19 19 19 17 16 16 16 15 14 13 14 14 9 10 11 12 12 12 12 13 13 15 16 14 12 12 12 12 13 14 14 13 13 15 13 11 13 11 13 15 16 15 16 16 16 19 26 27 27 27 23 17 16 15 15 14 14 17 15 14 13 12 10 10 12 14 14 15 19 21 20 18 18 16 14 14 18
25 25 26 24 22 20 20 20 19 19 18 18 17 18 17 14 14 14 14 13 13 12 12 12 11 11 12 12 12 14 16 15 12 12 11 11 12 14 15 15 16 14 13 14 15 15 12 9 12 16 16 15 14 20 25 28 27 27 26 20 14 15 15 15 14 13 14 16 14 13 12 11 11 18 15 14 14 13 17 18 18 17 15 16 15
28 30 31 31 28 26 24 22 25 26 25 20 18 16 16 13 15 15 14 15 14 15 13 12 10 10 11 11 11 13 16 15 11 10 10 11 13 15 15 14 13 13 14 16 15 15 15 16 14 12 12 12 13 17 25 27 27 28 27 23 15 16 15 16 17 17 14 15 15 15 14 13 11 12 12 14 13 14 13 11 11 11 10 11 11
27 28 28 27 26 25 27 27 26 25 25 22 20 19 19 21 19 19 17 16 16 15 15 11 10 10 10 10 10 12 15 15 11 10 10 12 13 13 13 12 13 15 15 16 16 16 13 13 14 15 13 12 12 18 21 22 23 26 28 23 14 15 15 14 15 15 16 17 16 16 15 16 14 13 12 14 14 14 14 13 12 11 10 9 9
24 25 28 25 26 28 29 30 28 23 22 21 21 24 19 23 19 20 19 18 17 17 15 11 10 10 10 8 8 11 15 14 11 10 11 12 13 13 14 12 12 13 13 14 14 15 16 15 14 15 14 15 13 19 22 24 25 24 24 16 13 14 14 14 15 15 14 14 15 16 15 15 16 15 17 22 18 15 15 17 15 12 9 7 8
28 26 28 28 27 28 28 27 28 27 26 23 22 18 20 19 19 17 17 18 18 17 14 11 10 10 10 8 6 9 14 13 11 10 11 12 13 13 12 11 13 13 13 14 14 14 14 15 15 13 14 14 12 18 22 23 24 26 22 15 14 12 13 14 14 15 15 14 15 15 15 15 16 16 17 18 16 20 17 20 17 15 11 10 9
28 31 30 31 28 26 27 25 27 28 25 23 22 19 19 18 17 13 14 18 17 15 12 10 10 10 10 8 6 6 12 12 10 11 12 12 12 11 12 11 13 13 13 14 12 12 13 16 19 20 18 16 15 18 25 26 27 28 23 17 14 14 15 15 14 14 13 13 15 21 18 16 16 15 18 21 21 21 17 18 16 15 13 12 9
26 29 31 33 33 32 28 24 28 27 24 22 20 23 19 22 18 17 15 17 15 14 11 10 10 9 9 8 6 6 8 11 10 11 11 12 11 11 10 10 12 12 14 13 13 14 13 13 16 19 23 21 16 18 25 26 27 27 22 15 15 13 14 13 13 12 11 11 12 16 21 19 18 17 22 21 22 22 17 17 17 15 15 15 14
34 30 27 26 24 25 30 28 24 24 25 23 20 18 20 20 18 17 18 16 13 12 11 11 10 9 9 9 8 7 7 9 10 10 11 12 11 10 10 11 11 11 11 12 13 13 15 14 14 15 16 19 17 15 20 27 26 26 26 16 13 14 15 15 13 14 13 10 12 12 16 19 17 21 24 24 22 21 19 17 15 16 15 18 12
32 33 35 29 29 24 25 25 25 26 19 20 19 19 20 19 19 17 17 15 13 13 13 11 10 10 10 10 9 7 8 8 9 10 10 10 10 10 10 11 11 10 10 11 14 13 15 14 13 15 15 16 16 16 18 26 26 27 28 23 14 16 15 15 14 14 14 14 12 12 11 18 19 21 22 25 21 19 17 17 17 17 17 10 13
29 32 30 26 29 28 26 28 22 24 24 18 16 19 21 20 18 18 18 17 17 18 15 13 13 12 12 11 10 8 8 8 9 9 9 10 9 10 12 12 11 11 12 13 12 12 13 12 12 13 14 16 15 19 15 24 27 28 28 28 16 15 16 15 14 13 13 12 14 13 13 19 25 24 26 23 21 19 15 14 13 10 14 17 14
33 35 36 31 24 25 28 23 23 23 17 17 18 21 21 20 20 19 17 17 17 16 15 13 13 14 13 13 11 9 9 7 8 10 11 11 10 9 9 10 12 12 13 14 14 13 12 12 11 11 12 13 13 14 20 19 26 28 29 27 24 17 22 16 16 15 15 14 13 14 15 23 25 26 23 21 22 24 24 13 16 17 17 18 14
33 31 30 29 27 28 26 27 24 20 18 18 17 18 19 21 22 19 15 12 11 10 11 13 14 14 13 12 11 10 9 8 9 10 11 12 11 11 11 10 11 12 12 13 12 12 12 12 13 11 10 10 11 11 17 22 22 29 27 29 26 23 23 15 15 15 14 13 13 12 13 22 24 25 24 21 22 27 16 19 19 18 19 16 12
30 31 32 29 25 26 26 27 24 21 19 17 15 16 22 23 22 17 16 15 15 14 14 15 15 14 13 12 10 9 8 8 9 10 11 12 12 12 11 11 12 12 12 13 12 12 13 12 11 12 11 10 10 11 11 18 25 26 27 28 27 25 23 20 14 10 11 12 13 17 20 25 24 24 25 26 22 23 18 20 22 23 20 12 12
30 29 31 30 28 25 22 21 23 20 17 14 15 14 19 22 20 16 14 13 13 13 14 14 14 13 13 11 10 8 8 9 9 9 11 11 12 12 11 11 11 12 13 13 12 12 12 12 12 12 12 12 12 11 12 13 17 21 23 28 29 25 22 21 16 11 14 15 16 17 19 21 21 20 17 14 13 16 23 24 25 24 14 12 12
29 30 29 28 27 26 28 29 28 25 21 17 13 13 14 16 17 15 13 12 13 14 14 14 14 13 12 10 9 8 7 8 9 9 10 10 11 11 12 12 12 12 12 12 12 12 12 12 12 12 11 11 12 12 12 12 13 14 14 17 19 17 18 17 11 8 10 9 12 14 12 16 13 19 18 18 18 20 18 16 14 13 12 13 13
27 26 27 25 26 27 28 29 27 26 23 22 18 16 15 16 16 15 14 14 13 13 13 13 13 11 9 8 8 10 11 9 9 10 10 10 11 12 12 13 13 13 13 13 13 13 14 13 12 11 11 11 12 12 13 15 14 14 14 14 15 14 14 14 12 10 11 11 11 11 14 12 11 10 9 7 8 9 12 14 13 13 12 12 13
28 28 27 25 26 28 28 28 26 23 23 23 23 20 19 18 16 16 16 16 15 14 12 12 11 10 11 10 10 9 9 9 9 9 10 11 12 12 12 11 11 11 13 14 13 13 12 12 12 13 14 14 14 15 16 15 17 20 20 18 17 17 15 14 15 16 13 11 10 11 11 11 12 13 11 11 11 11 11 11 12 11 10 10 11
24 22 23 25 26 25 26 27 24 22 22 22 23 22 20 18 18 17 16 15 15 14 13 12 11 11 11 10 9 9 9 9 9 9 9 10 12 15 14 12 11 13 17 18 17 14 14 12 13 14 15 17 17 15 14 19 22 25 25 26 24 23 22 17 20 22 15 13 13 13 13 14 13 13 14 13 13 13 12 12 11 12 12 11 11
27 27 27 28 27 27 26 26 24 23 23 23 23 23 22 20 18 17 16 15 14 12 11 10 10 9 10 9 8 8 8 8 8 9 9 10 8 11 16 18 16 17 19 20 19 17 18 21 18 14 14 17 12 15 24 28 26 25 25 23 20 19 19 19 22 18 14 14 13 13 13 13 14 14 14 14 13 13 13 13 13 13 11 12 13
Wind_Direction
345 356 358 351 348 338 325 317 315 306 294 284 267 247 238 236 236 230 219 207 203 204 195 189 184 184 185 186 192 189 185 182 182 179 177 181 184 184 184 181 175 168 174 175 175 169 168 163 155 172 159 159 160 167 166 163 163 158 143 140 136 130 116 134 135 123 113 70 66 81 65 41 64 81 82 70 65 70 96 104 106 87 75 85 72
1 3 357 352 347 340 330 325 324 322 312 311 263 246 237 238 238 240 229 216 209 211 207 202 196 191 189 189 187 185 180 181 185 181 180 181 181 184 184 183 180 175 175 178 175 174 168 155 159 171 168 161 163 161 163 162 158 149 150 131 144 139 142 160 153 126 130 143 132 105 51 35 31 63 70 55 62 69 100 117 124 118 111 102 72
358 357 355 351 346 346 342 339 327 279 287 294 283 271 246 234 239 241 237 226 217 210 215 215 206 198 197 197 189 187 190 185 180 180 175 177 181 185 185 182 181 180 178 178 178 177 172 165 172 169 167 158 147 151 150 157 164 164 162 150 148 130 119 184 168 148 125 123 111 96 139 103 354 41 37 44 26 49 108 115 128 121 126 117 116
356 351 351 348 349 350 352 349 340 328 317 299 297 277 260 240 238 237 237 234 226 218 215 226 223 214 210 202 197 190 184 180 173 171 179 178 184 186 189 183 180 182 181 180 180 181 176 174 172 171 168 161 159 156 161 170 175 170 164 155 149 141 147 183 213 139 138 138 149 160 163 125 126 253 175 24 329 13 99 141 149 144 141 122 102
352 350 351 351 351 351 346 341 339 344 338 331 315 299 279 256 243 239 237 237 235 225 218 219 225 225 205 202 188 184 163 176 169 180 186 185 183 189 192 185 185 183 182 182 182 181 179 177 175 172 166 170 165 163 166 177 180 178 165 155 160 156 155 148 206 174 154 160 126 121 108 175 201 156 131 243 22 124 188 43 124 146 152 152 137
353 348 347 348 349 348 349 345 347 343 340 333 323 299 287 279 262 247 244 241 242 233 217 212 211 213 207 196 191 186 190 179 181 179 182 189 193 187 187 188 187 185 183 182 182 180 180 179 176 169 170 171 176 173 175 174 178 176 177 167 161 154 152 149 151 280 180 157 161 132 153 167 150 176 144 199 14 298 271 253 172 220 151 139 114
352 352 352 353 352 350 348 345 339 338 332 327 323 315 300 285 277 259 245 241 241 241 230 219 219 204 209 216 207 197 193 193 188 185 187 189 184 183 183 186 186 186 183 184 182 181 179 178 176 172 171 173 175 164 167 177 181 185 174 170 170 154 151 165 168 169 124 206 174 123 112 134 146 147 185 97 177 237 328 177 250 294 104 129 145
351 352 354 351 351 351 344 338 334 330 326 324 320 318 312 298 287 271 253 244 240 239 236 221 218 216 204 206 216 216 209 201 186 186 186 185 187 181 178 183 187 187 183 185 184 182 179 177 174 174 174 175 169 173 172 168 166 164 176 170 151 165 171 171 170 165 175 186 164 129 89 114 155 106 141 161 129 157 213 14 38 21 56 14 166
355 354 354 353 350 348 344 338 331 328 329 328 323 313 308 307 294 279 261 246 239 238 240 232 223 216 214 210 211 218 218 210 198 186 183 181 186 186 181 181 188 189 187 183 183 183 183 179 177 175 175 173 177 168 153 164 171 170 168 162 166 173 183 172 167 185 184 171 156 145 127 131 131 52 153 133 143 152 176 185 163 36 59 30 13
359 355 348 347 347 345 339 332 333 334 328 328 331 323 317 319 309 292 280 261 247 240 236 237 230 220 216 212 209 205 210 210 199 194 186 178 186 189 186 182 183 189 190 188 185 184 183 181 179 178 176 175 178 172 171 177 174 176 178 174 169 172 173 166 179 180 192 158 182 146 137 106 113 110 172 152 92 160 167 183 165 150 143 159 16
351 345 341 338 338 338 337 337 335 335 335 338 340 341 338 333 323 314 301 287 268 249 239 238 235 225 218 216 216 206 197 200 200 196 189 182 187 187 188 187 183 187 187 191 189 187 186 183 180 182 180 176 178 174 172 178 181 183 177 174 172 170 170 174 172 179 174 157 174 174 179 173 172 171 177 184 148 142 110 130 137 153 146 128 26
345 343 342 338 340 345 347 346 344 341 341 344 343 345 343 336 331 326 317 303 284 260 244 240 238 233 223 218 214 211 200 200 200 200 192 186 183 186 188 188 188 185 186 189 192 190 188 186 183 178 180 179 183 180 176 177 178 171 166 186 185 180 172 164 167 170 175 164 182 188 196 188 164 163 172 178 171 164 143 132 134 125 77 69 160
343 341 341 344 346 345 348 348 348 347 345 344 344 342 341 339 335 332 322 312 297 273 252 243 238 236 229 222 216 210 204 199 198 198 198 193 186 185 185 192 186 187 190 189 192 188 186 185 184 182 181 182 179 178 179 176 171 171 173 186 181 185 188 184 177 180 175 178 185 182 182 180 191 194 161 174 153 128 132 128 140 102 131 137 36
332 323 323 334 341 343 346 347 345 344 345 344 341 341 337 334 335 334 325 319 309 289 261 249 240 237 232 227 218 209 217 207 197 196 195 197 193 189 187 189 190 191 186 191 188 186 188 186 183 184 184 181 179 181 177 176 172 176 178 183 185 190 181 184 189 180 176 164 144 165 179 187 195 181 164 144 147 140 147 145 141 62 103 127 79
345 338 338 343 345 346 347 346 345 343 342 341 339 335 333 331 333 333 330 324 316 299 269 257 246 238 233 224 216 214 210 208 210 204 196 196 196 193 191 191 194 192 186 186 186 187 185 187 186 183 184 187 186 184 179 175 180 175 182 185 185 178 185 183 186 172 169 178 175 178 179 185 189 165 162 167 161 163 154 153 139 129 84 62 79
338 330 328 333 337 342 344 343 340 336 336 334 333 332 328 326 326 331 330 327 322 305 276 263 256 240 232 225 219 216 211 208 207 201 202 200 200 197 192 191 195 193 191 180 187 187 184 184 187 188 186 187 187 187 182 177 177 176 181 182 183 177 179 184 186 175 175 181 186 174 167 193 180 172 182 172 177 162 150 155 148 142 140 134 113
325 323 327 333 338 343 344 341 334 331 332 331 327 324 324 324 326 330 333 333 330 316 285 271 268 255 238 224 214 217 218 205 201 203 200 197 198 200 198 192 190 192 193 191 185 182 187 189 182 188 191 187 184 187 182 183 179 179 178 181 183 179 180 187 181 182 181 179 182 175 184 184 187 172 172 171 170 154 159 163 161 155 152 139 154
309 311 322 330 336 336 336 335 332 324 322 321 322 322 321 323 323 329 335 337 332 323 299 284 281 266 249 233 223 217 212 208 206 205 201 199 196 195 194 191 191 192 191 191 188 184 184 188 191 190 187 188 188 186 184 181 181 186 183 183 185 174 180 182 183 183 178 174 178 178 180 183 178 168 187 173 174 162 164 171 173 162 151 152 158
307 311 312 320 325 328 327 324 319 310 307 308 308 312 316 325 325 328 333 332 331 326 311 285 280 273 262 240 221 218 225 214 204 205 199 204 201 195 194 192 185 182 185 187 192 189 186 189 190 193 186 183 188 189 184 184 180 184 184 185 182 178 177 179 184 179 178 170 172 179 182 183 168 177 177 169 162 154 165 166 162 149 180 156 156
296 294 297 306 313 318 319 318 312 306 306 308 310 310 316 323 327 328 329 336 337 333 324 306 288 278 270 273 268 235 220 222 208 204 205 204 203 198 194 193 187 181 187 184 187 193 188 184 194 188 188 188 185 186 187 185 181 185 181 184 182 180 183 183 179 182 167 175 171 177 182 180 174 169 175 177 171 161 153 158 157 159 153 141 146
289 288 292 299 304 310 315 313 304 295 294 296 297 304 306 313 323 326 329 331 334 331 326 321 307 290 281 255 238 232 234 217 213 208 204 205 200 199 198 195 188 183 177 186 189 192 193 189 188 186 194 188 188 185 186 183 185 183 180 183 175 180 187 187 172 176 172 171 175 179 182 181 166 171 181 173 170 160 153 154 149 145 151 161 146
285 284 288 291 297 307 314 311 303 290 291 295 295 294 300 309 317 322 325 329 332 329 326 322 318 308 295 276 260 236 221 233 226 205 208 201 197 199 198 187 191 195 184 181 189 193 196 192 187 192 191 189 189 188 180 178 183 184 181 179 174 178 185 185 173 176 174 176 176 179 180 174 176 178 168 174 173 160 162 155 165 159 163 170 167
283 280 285 284 291 303 307 306 299 286 282 286 289 288 292 300 309 316 321 324 326 319 317 318 323 323 316 304 280 257 230 208 224 228 208 201 197 197 192 193 194 186 184 190 187 186 191 189 192 195 192 190 189 187 185 182 184 184 182 183 181 180 181 179 181 185 178 171 170 181 179 172 170 172 178 174 165 167 166 168 170 166 160 162 163
291 282 279 282 292 301 308 308 301 289 276 276 277 277 277 282 294 302 312 318 321 320 315 317 322 324 324 318 303 265 240 216 207 216 221 207 199 193 187 193 188 182 188 184 185 191 185 189 191 196 195 197 186 185 188 190 187 185 187 186 183 185 184 184 186 185 178 171 173 175 179 172 171 174 172 164 169 163 168 171 165 167 155 154 157
295 287 283 285 294 307 308 301 296 284 271 269 272 275 277 284 288 297 301 308 316 318 317 316 319 321 324 325 314 289 244 225 213 212 212 211 204 194 187 192 186 186 182 181 183 180 190 194 190 190 189 191 199 186 182 191 195 189 186 186 183 182 184 185 187 184 177 176 173 179 176 171 171 170 168 167 167 170 170 162 161 158 156 148 139
296 289 286 288 296 299 296 295 292 282 267 269 272 272 278 283 288 292 298 307 314 317 316 312 312 315 318 321 321 302 258 229 217 212 211 204 200 195 190 192 189 194 187 182 183 187 188 194 199 192 188 189 187 190 189 188 191 188 187 188 185 181 180 181 182 185 183 178 176 175 168 173 174 173 177 172 169 166 154 157 157 157 149 142 129
293 288 284 288 293 296 295 292 289 282 268 262 273 283 286 292 294 291 290 296 305 311 312 308 305 307 310 314 316 312 281 242 224 209 202 203 200 194 190 191 191 189 183 193 190 185 189 194 194 190 194 188 188 191 189 191 191 188 185 184 185 188 183 179 182 183 183 183 178 171 169 175 181 180 169 168 168 167 168 172 167 158 151 144 130
285 283 287 291 293 292 291 290 288 284 275 266 270 280 290 296 298 297 294 295 298 304 309 308 306 303 303 306 309 308 297 263 229 212 200 197 196 195 193 189 186 188 188 184 193 198 188 188 192 191 195 193 193 194 192 190 188 188 183 185 181 180 184 186 178 176 180 182 178 174 174 179 184 181 174 169 167 172 169 167 171 154 158 148 140
287 283 284 288 291 291 289 287 284 280 276 273 275 281 292 298 298 299 299 294 294 298 305 305 304 300 296 300 304 305 299 278 249 214 199 197 194 190 190 182 180 201 198 189 181 183 198 194 191 192 192 189 186 196 196 188 182 183 186 186 183 180 175 179 182 175 174 182 181 176 179 183 187 182 176 167 175 174 167 167 173 166 164 153 143
288 287 287 286 287 290 286 283 280 277 276 278 278 284 292 296 300 302 301 300 296 291 299 302 300 296 294 295 299 297 293 281 250 222 204 194 190 188 180 181 189 184 190 205 189 181 186 200 199 196 192 189 190 192 194 193 184 180 181 185 184 184 177 170 173 176 175 178 184 180 183 183 184 179 174 174 174 175 178 178 172 171 165 154 152
290 288 288 284 284 286 284 279 278 281 280 276 279 285 289 291 293 296 298 299 290 290 295 297 295 293 289 290 296 298 294 279 250 223 210 197 188 183 183 181 177 180 179 176 197 197 190 193 201 197 193 193 192 194 191 190 190 187 181 181 181 182 180 176 174 175 176 179 186 188 179 182 181 177 177 177 175 181 183 176 178 185 177 162 156
290 290 290 294 294 292 292 289 288 287 285 281 283 286 288 289 290 292 297 295 284 282 287 289 287 287 284 284 290 296 294 280 249 227 207 199 190 182 183 182 177 174 175 173 178 201 204 195 196 200 198 195 195 193 190 191 190 187 185 183 181 178 177 181 183 179 177 178 179 180 179 174 180 183 178 178 180 181 180 175 176 187 189 180 172
312 325 329 327 324 320 319 314 307 303 299 296 295 293 290 289 292 295 297 292 289 287 285 283 285 282 280 279 284 294 294 281 249 227 209 195 188 184 183 182 183 181 170 176 189 183 194 208 202 198 202 199 199 192 191 192 190 187 185 180 182 178 175 178 178 186 180 176 175 177 170 173 185 183 174 172 173 179 180 173 173 182 186 181 184
322 314 312 311 310 308 307 306 305 308 309 311 309 305 301 303 302 301 296 292 292 291 286 284 283 281 276 275 283 294 294 280 253 227 209 195 188 188 183 180 177 174 180 183 182 192 192 187 194 204 205 200 201 195 193 191 191 189 185 182 180 176 179 179 180 181 181 178 177 175 173 172 176 179 179 172 172 171 170 166 169 178 183 186 184
324 320 316 312 309 306 305 301 297 294 289 289 290 293 303 300 299 296 293 292 290 288 285 281 279 277 272 271 282 297 293 278 251 225 207 199 194 191 181 176 173 178 183 185 185 187 191 195 192 189 194 203 205 195 193 193 193 189 186 183 181 179 178 182 184 183 180 179 179 179 177 172 171 177 179 176 170 171 166 165 166 173 177 181 177
313 313 308 312 316 315 313 310 305 301 299 293 285 286 283 282 285 285 288 288 286 282 277 275 272 271 268 264 279 300 294 275 249 223 208 202 197 190 184 178 177 182 184 183 187 185 186 190 194 193 194 200 200 194 195 192 189 189 185 183 181 179 180 180 181 183 183 181 179 176 174 172 171 177 180 177 172 164 164 164 170 174 176 176 190
307 310 307 305 304 304 304 305 305 307 307 304 300 292 284 277 276 274 280 281 278 273 270 268 265 269 267 262 271 297 293 268 245 222 210 205 198 194 187 174 176 181 183 189 189 187 185 182 185 195 197 199 199 195 192 191 191 188 182 185 179 179 180 181 183 181 182 180 180 178 173 171 172 179 175 170 163 163 169 172 173 175 176 173 181
306 307 306 302 300 299 298 299 299 298 298 298 298 297 290 280 275 279 277 274 268 265 266 264 265 265 262 257 262 284 287 266 237 223 213 206 200 193 185 178 180 179 184 188 185 188 187 187 188 191 196 201 201 195 193 193 191 188 184 182 180 181 183 183 182 181 180 178 181 178 175 170 172 177 171 171 165 166 169 175 175 170 170 181 180
307 306 304 306 306 302 294 293 297 294 294 295 296 295 290 284 281 280 273 269 265 268 266 263 263 261 256 248 251 257 267 262 238 223 214 208 200 194 188 183 186 182 185 182 185 187 188 190 192 194 192 193 197 194 194 194 192 188 184 181 179 181 180 183 177 177 178 175 177 182 177 174 174 168 168 170 166 171 173 176 177 172 179 188 190
312 306 296 286 287 300 302 295 292 292 298 296 295 292 289 285 277 268 262 260 263 268 268 265 264 259 252 244 239 238 242 248 240 225 215 210 200 190 184 184 189 187 185 183 187 189 187 191 191 194 195 196 194 192 194 193 191 188 184 181 181 180 185 180 177 173 171 179 178 178 185 177 163 163 167 170 171 173 177 178 173 181 180 199 175
308 309 310 306 302 296 303 296 296 295 290 294 291 291 288 287 286 282 270 270 276 276 273 269 266 262 254 246 236 225 227 233 232 223 215 209 200 193 184 186 186 189 186 187 189 192 191 192 187 190 194 198 196 188 190 189 188 187 186 181 184 187 182 177 178 176 177 172 176 181 178 180 165 164 166 172 172 176 173 175 177 185 195 166 129
310 308 308 304 305 301 298 302 286 299 295 289 288 289 293 290 279 270 272 274 269 271 271 269 268 263 257 249 239 224 216 220 223 219 214 212 211 196 185 183 186 187 189 192 191 193 195 194 190 189 193 194 194 188 181 189 187 187 187 185 183 187 180 174 175 179 178 177 177 177 181 182 175 170 173 170 169 169 158 168 181 138 118 127 142
317 317 317 308 298 302 303 298 301 296 295 292 289 287 284 283 280 279 271 265 263 259 258 262 266 264 257 251 245 226 215 207 211 211 211 213 203 198 196 185 184 188 191 192 192 194 194 193 189 190 192 191 187 187 182 185 188 187 188 188 186 182 181 178 177 178 183 183 179 182 184 180 178 175 173 166 168 171 176 170 150 137 135 124 124
319 317 313 315 312 311 310 306 301 298 294 292 289 286 285 283 280 280 276 268 263 259 264 265 264 259 254 252 246 233 221 207 206 205 207 209 206 198 190 190 189 188 190 194 196 193 194 193 191 188 188 187 185 181 185 184 186 187 187 188 188 187 184 184 180 180 181 180 180 182 177 178 179 178 174 166 168 175 169 157 145 137 135 134 131
323 325 326 322 313 310 311 309 305 300 296 290 283 281 287 283 278 274 268 262 257 256 258 258 255 251 249 249 241 229 224 214 210 202 204 206 205 195 196 193 187 191 192 193 194 191 194 195 190 188 185 182 180 180 181 187 186 187 187 188 190 189 188 181 181 185 175 182 182 177 173 176 179 178 175 175 175 173 152 152 150 149 148 145 151
326 327 332 329 322 313 302 297 301 303 296 288 286 282 287 287 284 276 266 260 257 256 253 250 250 248 248 243 239 235 229 227 218 207 206 202 199 193 194 188 189 192 192 193 191 190 194 192 193 190 184 182 177 176 181 183 187 187 188 190 190 190 185 184 182 175 181 173 170 168 168 174 176 176 170 171 171 173 168 166 162 157 157 158 159
327 327 331 332 333 331 330 327 321 320 319 310 285 281 276 283 291 291 282 269 262 256 255 253 250 251 246 238 237 244 240 229 222 217 210 204 197 192 192 192 190 191 193 193 191 188 190 193 194 189 184 179 180 181 179 179 183 184 188 189 189 190 181 175 172 145 144 149 155 159 164 170 173 175 177 176 173 172 169 165 161 164 165 167 170
328 328 330 328 330 330 329 328 327 328 328 327 324 318 315 318 313 309 304 297 284 269 260 256 254 250 247 242 245 240 238 230 217 212 212 209 200 193 194 197 193 191 190 193 191 190 190 190 190 183 180 183 186 186 185 181 180 178 180 180 185 182 179 181 169 157 153 146 147 151 155 161 161 164 166 156 159 168 172 171 173 174 173 172 173
329 332 332 330 328 328 328 328 325 325 327 325 325 325 326 326 325 323 322 317 307 290 272 264 261 258 257 254 250 244 231 225 214 212 213 209 200 196 197 199 200 192 193 192 192 193 189 186 184 184 184 191 192 194 197 183 179 180 179 179 183 187 183 178 173 152 137 136 136 147 156 162 167 167 168 172 172 171 177 181 175 172 166 165 168
329 328 328 327 326 327 327 327 326 326 326 327 325 323 323 324 323 320 316 308 302 297 289 273 262 258 257 253 247 238 225 216 209 204 210 216 214 201 189 193 201 204 203 198 189 192 188 183 190 198 193 192 197 196 157 171 186 188 187 186 186 180 177 171 159 151 143 147 157 161 169 170 172 173 177 177 176 177 175 176 183 178 172 175 179
334 333 333 331 331 330 329 329 328 329 326 325 324 321 320 320 316 310 303 296 294 294 287 281 272 260 252 247 241 233 218 211 203 197 199 203 203 214 204 197 195 192 197 205 205 200 185 190 192 195 201 202 177 154 173 187 185 184 185 183 178 175 171 159 146 139 151 162 164 169 175 178 179 178 179 178 174 175 179 180 182 182 179 177 178